Terminal Aerodrome Forecast
Issued by NWS

Home | Current Version | Previous Version | Text Only | Print | Product List | Glossary On
Versions: 1 2 3 4 5 6 7 8 9 10 11 12 13 14 15 16 17 18 19 20 21 22 23 24 25 26 27 28 29 30 31 32 33 34 35 36 37 38 39 40 41 42 43 44 45 46 47 48 49 50
000
FTUS41 KCTP 302339
TAFJST
TAF
KJST 302339Z 0100/0124 15007KT P6SM VCSH BKN040
     FM010100 17008KT P6SM SCT035 BKN070
     FM011900 20010G20KT 5SM -SHRA BR OVC030
      TEMPO 0119/0122 26015G30KT 3/4SM +TSRA BR OVC015CB
     FM012200 24012G24KT P6SM BKN035=

USA.gov is the U.S. government's official web portal to all federal, state and local government web resources and services.